Regional Weather Roundup
Issued by NWS Midland/Odessa, TX

Skip options and go directly to product.
Home | Oldest Version | Previous Version | Current Version | All | Graphics & Text | Save Text | Print | Product List | Glossary On

Skip product version selection by date and time.   
977
ASUS44 KMAF 241910
RWRMAF
MIDLAND AREA WEATHER ROUNDUP
NATIONAL WEATHER SERVICE MIDLAND TX
200 PM CDT TUE MAY 24 2016

...IN SOUTHWEST TEXAS AND SOUTHEAST NEW MEXICO...

CITY           SKY/WX    TMP DP  RH WIND       PRES   REMARKS
ALPINE         MOSUNNY   87  18   8 W13       30.10F
ANDREWS        FAIR      92  34  13 W14G21    29.93S
ARTESIA        SUNNY     90  21   8 SW21G32   29.91S
BIG SPRING     SUNNY     83  64  52 SE13      29.92F
CARLSBAD       PTSUNNY   87  19   8 W17       29.92F
DRYDEN         NOT AVBL
FORT STOCKTON  CLOUDY    91  30  11 S6        29.93F
GUAD PASS      NOT AVBL
HOBBS          SUNNY     90  14   6 SW20G31   29.95S
MARFA          MOSUNNY   84  16   8 SW12G23   30.09F
MIDLAND AIRPK  SUNNY     95  35  12 W9G17     29.90F
MIDLAND INTL   SUNNY     96  38  13 SW9G21    29.90S
ODESSA         SUNNY     94  41  16 VRB6G20   29.91F
PECOS          CLOUDY    95  18   6 SW15G25   29.90F
PRESIDIO       NOT AVBL
SEMINOLE       SUNNY     90  30  11 W15       29.94S
SNYDER           N/A     82  69  63 S16       29.92F
WINK           SUNNY     95  18   6 MISG      29.88F
$$
...OTHER STATIONS IN TEXAS...

CITY           SKY/WX    TMP DP  RH WIND       PRES   REMARKS
ABILENE        CLOUDY    82  70  66 S15       29.92F
AMARILLO       SUNNY     88  56  33 S15       29.89F
AUSTIN         CLOUDY    85  73  67 S14       29.94F
BROWNSVILLE    CLOUDY    88  77  69 SE20G26   29.90F HX 100
CORPUS CHRISTI PTSUNNY   87  77  72 SE15G26   29.91S
DALLAS FTW     CLOUDY    83  71  67 SE16      29.94F
DEL RIO        PTSUNNY   87  73  62 SE10      29.88F
EL PASO        MOSUNNY   86  22   9 S14       30.00F
HOUSTON INT    PTSUNNY   85  75  72 SE14      29.99F
LUBBOCK        MOSUNNY   85  66  53 S17       29.91F
SAN ANGELO     PTSUNNY   84  70  62 S14G22    29.91S
SAN ANTONIO    CLOUDY    83  73  72 SE12      29.94F
WACO           CLOUDY    84  70  62 S13       29.95F
WICHITA FALLS  NOT AVBL
$$
...OTHER LOCATIONS IN NEW MEXICO...

CITY           SKY/WX    TMP DP  RH WIND       PRES   REMARKS
ALAMAGORDO     SUNNY     82  19   9 SW14      30.00F
ALBUQUERQUE    MOSUNNY   75  22  13 SW6G20    30.00F
CANNON AFB     MOSUNNY   86  23  10 W16G25    29.92F
CLOVIS         SUNNY     88  36  15 SW17G23   29.93S
HOLLOMAN AFB   SUNNY     83  17   8 W18       29.97F
ROSWELL        SUNNY     90  21   8 S10       29.90F
RUIDOSO          N/A     72  16  12 SW25G32   30.12F
SANTA FE       SUNNY     76  16  10 SW20G28   30.04F
TRUTH OR CONSE SUNNY     81  20  10 S25G35    29.98F
TUCUMCARI      SUNNY     90  20   7 SW23G29   29.88F
$$

USA.gov is the U.S. government's official web portal to all federal, state and local government web resources and services.